Tracking 19219 objects as of 19-Jul-2018
HD Live streaming from Space Station
objects crossing your sky now

COSMOS 2333

Track COSMOS 2333 now!
10-day predictions
COSMOS 2333 is classified as:


NORAD ID: 24297
Int'l Code: 1996-051A
Perigee: 837.5 km
Apogee: 872.9 km
Inclination: 70.9 °
Period: 101.9 minutes
Semi major axis: 7226 km
RCS: 6.069 m2 (large)
Launch date: September 4, 1996
Source: Commonwealth of Independent States (former USSR) (CIS)
Launch site: TYURATAM MISSILE AND SPACE COMPLEX (TTMTR)
aabbcc
Your satellite tracking list
Your tracking list is empty




NASA's NSSDC Master Catalog

Two Line Element Set (TLE):
1 24297U 96051A   18200.67716281  .00000025  00000-0  38855-4 0  9994
2 24297  70.9030 297.0127 0024505 323.0863  36.8570 14.13301817128306
Source of the keplerian elements: AFSPC